Regional Weather Roundup
Issued by NWS

Home | Current Version | Previous Version | Graphics & Text | Print | Product List | Glossary On
Versions: 1 2 3 4 5 6 7 8 9 10 11 12 13 14 15 16 17 18 19 20 21 22 23 24 25 26 27 28 29 30 31 32 33 34 35 36 37 38 39 40 41 42 43 44 45 46 47 48 49 50
098
ASUS44 KJAN 201710
RWRMS

MISSISSIPPI HOURLY WEATHER ROUNDUP
NATIONAL WEATHER SERVICE JACKSON MS
1200 PM CDT SAT SEP 20 2014

NOTE: "FAIR: INDICATES FEW OR NO CLOUDS BELOW 12,000 FEET WITH NO
SIGNIFICANT WEATHER AND/OR OBSTRUCTIONS TO VISIBILITY.

MSZ001>002-007>008-010>013-018>021-025>028-034>036-201800-
NORTHWEST MISSISSIPPI

CITY           SKY/WX    TMP DP  RH WIND       PRES   REMARKS
CLARKSDALE     FAIR      86  70  58 CALM      30.08S HX  90
CLEVELAND      FAIR      87  71  57 SE3       30.05F HX  92
GREENWOOD      SUNNY     86  68  54 VRB3      30.06F
GREENVILLE     SUNNY     89  66  46 S5        30.04F HX  91
GRENADA        FAIR      82  70  65 E5        30.08F
OLIVE BRANCH   SUNNY     82  72  69 S9        30.10S
OXFORD         FAIR      81  68  65 E6        30.11F
TUNICA         SUNNY     86  68  54 SE3       30.08F
$$

MSZ003>006-009-014>017-022>024-029>033-037>039-201800-
NORTHEAST MISSISSIPPI

CITY           SKY/WX    TMP DP  RH WIND       PRES   REMARKS
COLUMBUS AFB   DRIZZLE   81  66  61 VRB6      30.08F
CORINTH        FAIR      82  66  57 S8        30.10F
GOLDN TRIANGLE MOSUNNY   82  66  57 MISG      30.09
STARKVILLE     FAIR      81  68  65 SE5       30.08F
TUPELO         SUNNY     84  67  56 VRB3      30.09F
$$

MSZ040-058-201800-
CENTRAL MISSISSIPPI

CITY           SKY/WX    TMP DP  RH WIND       PRES   REMARKS
JACKSON INTL   MOSUNNY   85  68  56 MISG      30.05F
JACKSON HAWKNS MOSUNNY   85  68  56 VRB3      30.06F
MERIDIAN KEY   MOSUNNY   83  67  58 E7        30.06F
MERIDIAN NAS   MOSUNNY   81  67  62 E7        30.07F
RAYMOND        FAIR      84  79  84 CALM      30.05F HX  96
VICKSBURG      SUNNY     87  68  52 E8        30.04F HX  90
$$

MSZ059>079-201800-
SOUTH MISSISSIPPI

CITY           SKY/WX    TMP DP  RH WIND       PRES   REMARKS
BROOKHAVEN     FAIR      84  70  61 E7        30.07F
COLUMBIA       FAIR      84  70  61 VRB7      30.03F
HATTIESBURG    MOSUNNY   84  69  60 E9        30.04F
MCCOMB         MOSUNNY   83  68  60 E9        30.04F
NATCHEZ        MOSUNNY   84  72  65 NE7       30.04F
PINE BELT      MOSUNNY  N/A N/A N/A NE8       30.05F
$$

MSZ080>082-201800-
COASTAL MISSISSIPPI

CITY           SKY/WX    TMP DP  RH WIND       PRES   REMARKS
BAY ST LOUIS   MOSUNNY   86  63  45 NE7       30.01S
BILOXI         SUNNY     87  68  53 E10       30.01F HX  90
PASCAGOULA     SUNNY     85  68  56 NE9       30.01F
GULFPORT       MOSUNNY   85  68  56 E13G20    30.00F
$$



USA.gov is the U.S. government's official web portal to all federal, state and local government web resources and services.